Time,TemperatureF,DewpointF,PressureIn,WindDirection,WindDirectionDegrees,WindSpeedMPH,WindSpeedGustMPH,Humidity,HourlyPrecipIn,Conditions,Clouds,dailyrainin,SoftwareType,DateUTC
2013-06-13 00:04:00,56.5,54.2,29.76,WNW,292,0.0,-999.0,92,-99.99,,,0.00,Acu-Link.com,2013-06-13 04:04:00,
2013-06-13 00:19:00,55.8,54.1,29.76,NNE,22,0.0,-999.0,94,-99.99,,,0.00,Acu-Link.com,2013-06-13 04:19:00,
2013-06-13 00:35:00,55.6,54.5,29.75,East,90,0.0,-999.0,96,-99.99,,,0.00,Acu-Link.com,2013-06-13 04:35:00,
2013-06-13 00:50:00,55.2,53.5,29.75,NW,315,0.0,-999.0,94,-99.99,,,0.00,Acu-Link.com,2013-06-13 04:50:00,
2013-06-13 01:05:00,54.9,53.2,29.75,NE,45,0.0,-999.0,94,-99.99,,,0.00,Acu-Link.com,2013-06-13 05:05:00,
2013-06-13 01:20:00,54.7,53.3,29.74,NW,315,0.0,-999.0,95,-99.99,,,0.00,Acu-Link.com,2013-06-13 05:20:00,
2013-06-13 01:36:00,54.0,52.9,29.75,NW,315,0.0,-999.0,96,-99.99,,,0.00,Acu-Link.com,2013-06-13 05:36:00,
2013-06-13 01:51:00,53.1,52.3,29.75,North,0,0.0,-999.0,97,-99.99,,,0.00,Acu-Link.com,2013-06-13 05:51:00,
2013-06-13 02:06:00,52.2,51.7,29.75,NW,315,0.0,-999.0,98,-99.99,,,0.00,Acu-Link.com,2013-06-13 06:06:00,
2013-06-13 02:21:00,51.8,51.3,29.75,NW,315,0.0,-999.0,98,-99.99,,,0.00,Acu-Link.com,2013-06-13 06:21:00,
2013-06-13 02:36:00,50.9,50.4,29.75,NW,315,0.0,-999.0,98,-99.99,,,0.00,Acu-Link.com,2013-06-13 06:36:00,
2013-06-13 02:52:00,50.5,50.0,29.75,NW,315,0.0,-999.0,98,-99.99,,,0.00,Acu-Link.com,2013-06-13 06:52:00,
2013-06-13 03:07:00,50.0,49.5,29.76,NW,315,0.0,-999.0,98,-99.99,,,0.00,Acu-Link.com,2013-06-13 07:07:00,
2013-06-13 03:22:00,49.1,48.6,29.76,NNW,337,0.0,-999.0,98,-99.99,,,0.00,Acu-Link.com,2013-06-13 07:22:00,
2013-06-13 03:37:00,49.1,48.6,29.75,NNE,22,0.0,-999.0,98,-99.99,,,0.00,Acu-Link.com,2013-06-13 07:37:00,
2013-06-13 03:52:00,49.1,48.6,29.75,North,0,0.0,-999.0,98,-99.99,,,0.00,Acu-Link.com,2013-06-13 07:52:00,
2013-06-13 04:08:00,48.6,48.1,29.75,NNE,22,0.0,-999.0,98,-99.99,,,0.00,Acu-Link.com,2013-06-13 08:08:00,
2013-06-13 04:23:00,48.2,47.7,29.75,NNE,22,0.0,-999.0,98,-99.99,,,0.00,Acu-Link.com,2013-06-13 08:23:00,
2013-06-13 04:38:00,47.8,47.3,29.76,WNW,292,0.0,-999.0,98,-99.99,,,0.00,Acu-Link.com,2013-06-13 08:38:00,
2013-06-13 04:54:00,47.1,46.6,29.76,North,0,0.0,-999.0,98,-99.99,,,0.00,Acu-Link.com,2013-06-13 08:54:00,
2013-06-13 05:09:00,46.6,46.1,29.75,NNW,337,0.0,-999.0,98,-99.99,,,0.00,Acu-Link.com,2013-06-13 09:09:00,
2013-06-13 05:24:00,46.6,46.1,29.76,NW,315,0.0,-999.0,98,-99.99,,,0.00,Acu-Link.com,2013-06-13 09:24:00,
2013-06-13 05:39:00,46.4,45.9,29.77,NW,315,0.0,-999.0,98,-99.99,,,0.00,Acu-Link.com,2013-06-13 09:39:00,
2013-06-13 05:54:00,46.4,45.9,29.76,NW,315,0.0,-999.0,98,-99.99,,,0.00,Acu-Link.com,2013-06-13 09:54:00,
2013-06-13 06:10:00,46.8,46.3,29.77,NW,315,0.0,-999.0,98,-99.99,,,0.00,Acu-Link.com,2013-06-13 10:10:00,
2013-06-13 06:25:00,47.3,46.8,29.76,NNE,22,0.0,-999.0,98,-99.99,,,0.00,Acu-Link.com,2013-06-13 10:25:00,
2013-06-13 06:40:00,48.4,47.9,29.77,NNW,337,1.7,-999.0,98,-99.99,,,0.00,Acu-Link.com,2013-06-13 10:40:00,
2013-06-13 06:56:00,49.1,48.6,29.76,ESE,112,0.0,-999.0,98,-99.99,,,0.00,Acu-Link.com,2013-06-13 10:56:00,
2013-06-13 07:11:00,50.2,49.7,29.75,ESE,112,0.0,-999.0,98,-99.99,,,0.00,Acu-Link.com,2013-06-13 11:11:00,
2013-06-13 07:26:00,52.0,51.5,29.76,SE,135,0.0,-999.0,98,-99.99,,,0.00,Acu-Link.com,2013-06-13 11:26:00,
2013-06-13 07:41:00,53.4,52.8,29.76,SSE,157,0.0,-999.0,98,-99.99,,,0.00,Acu-Link.com,2013-06-13 11:41:00,
2013-06-13 07:56:00,54.7,53.9,29.76,SSE,157,0.0,-999.0,97,-99.99,,,0.00,Acu-Link.com,2013-06-13 11:56:00,
2013-06-13 08:12:00,57.6,54.4,29.76,South,180,0.0,-999.0,89,-99.99,,,0.00,Acu-Link.com,2013-06-13 12:12:00,
2013-06-13 08:27:00,59.4,55.8,29.76,SE,135,0.0,-999.0,88,-99.99,,,0.00,Acu-Link.com,2013-06-13 12:27:00,
2013-06-13 08:42:00,60.8,56.6,29.75,SSE,157,0.0,-999.0,86,-99.99,,,0.00,Acu-Link.com,2013-06-13 12:42:00,
2013-06-13 08:57:00,62.6,56.7,29.74,SSE,157,0.0,-999.0,81,-99.99,,,0.00,Acu-Link.com,2013-06-13 12:57:00,
2013-06-13 09:12:00,64.4,57.0,29.74,South,180,0.0,-999.0,77,-99.99,,,0.00,Acu-Link.com,2013-06-13 13:12:00,
2013-06-13 09:28:00,66.9,57.6,29.74,SSE,157,0.0,-999.0,72,-99.99,,,0.00,Acu-Link.com,2013-06-13 13:28:00,
2013-06-13 09:43:00,70.3,58.8,29.73,SSW,202,1.1,-999.0,67,-99.99,,,0.00,Acu-Link.com,2013-06-13 13:43:00,
2013-06-13 09:58:00,71.8,59.8,29.73,SSE,157,0.0,-999.0,66,-99.99,,,0.00,Acu-Link.com,2013-06-13 13:58:00,
2013-06-13 10:13:00,68.9,58.3,29.73,WSW,247,0.0,-999.0,69,-99.99,,,0.00,Acu-Link.com,2013-06-13 14:13:00,
2013-06-13 10:28:00,69.4,58.8,29.73,SE,135,1.7,-999.0,69,-99.99,,,0.00,Acu-Link.com,2013-06-13 14:28:00,
2013-06-13 10:44:00,70.9,60.6,29.73,ENE,67,0.0,-999.0,70,-99.99,,,0.00,Acu-Link.com,2013-06-13 14:44:00,
2013-06-13 10:59:00,70.7,60.4,29.73,NE,45,0.0,-999.0,70,-99.99,,,0.00,Acu-Link.com,2013-06-13 14:59:00,
2013-06-13 11:14:00,71.1,60.0,29.73,SW,225,0.0,-999.0,68,-99.99,,,0.00,Acu-Link.com,2013-06-13 15:14:00,
2013-06-13 11:29:00,68.5,61.4,29.73,South,180,0.0,-999.0,78,-99.99,,,0.00,Acu-Link.com,2013-06-13 15:29:00,
2013-06-13 11:45:00,70.7,59.2,29.73,NW,315,1.7,-999.0,67,-99.99,,,0.00,Acu-Link.com,2013-06-13 15:45:00,
2013-06-13 12:00:00,69.8,60.0,29.72,North,0,0.0,-999.0,71,-99.99,,,0.00,Acu-Link.com,2013-06-13 16:00:00,
2013-06-13 12:15:00,67.5,60.0,29.72,NW,315,0.0,-999.0,77,-99.99,,,0.00,Acu-Link.com,2013-06-13 16:15:00,
2013-06-13 12:30:00,66.4,60.0,29.73,WNW,292,0.0,-999.0,80,-99.99,,,0.00,Acu-Link.com,2013-06-13 16:30:00,
2013-06-13 12:45:00,65.3,60.7,29.72,NW,315,0.0,-999.0,85,-99.99,,,0.00,Acu-Link.com,2013-06-13 16:45:00,
2013-06-13 13:01:00,64.8,60.5,29.71,NNW,337,0.0,-999.0,86,-99.99,,,0.00,Acu-Link.com,2013-06-13 17:01:00,
2013-06-13 13:16:00,64.0,60.7,29.71,WNW,292,0.0,-999.0,89,-99.99,,,0.00,Acu-Link.com,2013-06-13 17:16:00,
2013-06-13 13:32:00,63.7,60.4,29.70,NW,315,0.0,-999.0,89,-99.99,,,0.00,Acu-Link.com,2013-06-13 17:32:00,
2013-06-13 13:47:00,63.1,59.8,29.71,NW,315,0.0,-999.0,89,-99.99,,,0.00,Acu-Link.com,2013-06-13 17:47:00,
2013-06-13 14:02:00,62.6,59.9,29.70,NW,315,0.0,-999.0,91,-99.99,,,0.00,Acu-Link.com,2013-06-13 18:02:00,
2013-06-13 14:17:00,62.2,59.8,29.70,NNW,337,0.0,-999.0,92,-99.99,,,0.00,Acu-Link.com,2013-06-13 18:17:00,
2013-06-13 14:32:00,61.9,59.9,29.69,NNW,337,0.0,-999.0,93,-99.99,,,0.00,Acu-Link.com,2013-06-13 18:32:00,
2013-06-13 14:48:00,61.7,60.0,29.69,NW,315,0.0,-999.0,94,-99.99,,,0.00,Acu-Link.com,2013-06-13 18:48:00,
2013-06-13 15:03:00,61.7,60.0,29.69,NW,315,0.0,-999.0,94,-99.99,,,0.00,Acu-Link.com,2013-06-13 19:03:00,
2013-06-13 15:18:00,62.2,60.4,29.69,NW,315,0.0,-999.0,94,-99.99,,,0.00,Acu-Link.com,2013-06-13 19:18:00,
2013-06-13 15:33:00,63.5,61.4,29.68,NW,315,0.0,-999.0,93,-99.99,,,0.00,Acu-Link.com,2013-06-13 19:33:00,
2013-06-13 15:48:00,64.2,60.6,29.68,NE,45,0.0,-999.0,88,-99.99,,,0.00,Acu-Link.com,2013-06-13 19:48:00,
2013-06-13 16:04:00,64.6,61.0,29.67,NE,45,0.0,-999.0,88,-99.99,,,0.00,Acu-Link.com,2013-06-13 20:04:00,
2013-06-13 16:19:00,64.8,61.8,29.67,NNE,22,0.0,-999.0,90,-99.99,,,0.00,Acu-Link.com,2013-06-13 20:19:00,
2013-06-13 16:34:00,64.2,61.5,29.67,SW,225,0.0,-999.0,91,-99.99,,,0.00,Acu-Link.com,2013-06-13 20:34:00,
2013-06-13 16:50:00,63.7,61.3,29.67,NNE,22,0.0,-999.0,92,-99.99,,,0.00,Acu-Link.com,2013-06-13 20:50:00,
2013-06-13 17:05:00,63.7,61.3,29.67,NNW,337,0.0,-999.0,92,-99.99,,,0.00,Acu-Link.com,2013-06-13 21:05:00,
2013-06-13 17:20:00,63.5,61.1,29.68,NNE,22,0.0,-999.0,92,-99.99,,,0.00,Acu-Link.com,2013-06-13 21:20:00,
2013-06-13 17:36:00,63.1,60.7,29.69,WNW,292,0.0,-999.0,92,-99.99,,,0.00,Acu-Link.com,2013-06-13 21:36:00,
2013-06-13 17:51:00,63.0,60.6,29.67,NW,315,0.0,-999.0,92,-99.99,,,0.00,Acu-Link.com,2013-06-13 21:51:00,
2013-06-13 18:06:00,63.0,60.3,29.67,West,270,0.0,-999.0,91,-99.99,,,0.00,Acu-Link.com,2013-06-13 22:06:00,
2013-06-13 18:21:00,63.0,60.6,29.67,West,270,0.0,-999.0,92,-99.99,,,0.00,Acu-Link.com,2013-06-13 22:21:00,
2013-06-13 18:36:00,62.4,59.7,29.67,West,270,0.0,-999.0,91,-99.99,,,0.00,Acu-Link.com,2013-06-13 22:36:00,
2013-06-13 18:52:00,62.2,60.1,29.68,NNE,22,0.0,-999.0,93,-99.99,,,0.00,Acu-Link.com,2013-06-13 22:52:00,
2013-06-13 19:07:00,61.9,59.5,29.69,NW,315,0.0,-999.0,92,-99.99,,,0.00,Acu-Link.com,2013-06-13 23:07:00,
2013-06-13 19:22:00,61.3,59.3,29.68,NW,315,0.0,-999.0,93,-99.99,,,0.00,Acu-Link.com,2013-06-13 23:22:00,
2013-06-13 19:37:00,60.8,58.8,29.69,NNW,337,0.0,-999.0,93,-99.99,,,0.00,Acu-Link.com,2013-06-13 23:37:00,
2013-06-13 19:52:00,60.4,58.7,29.70,WNW,292,0.0,-999.0,94,-99.99,,,0.00,Acu-Link.com,2013-06-13 23:52:00,
2013-06-13 20:08:00,59.9,58.5,29.70,NNW,337,0.0,-999.0,95,-99.99,,,0.00,Acu-Link.com,2013-06-14 00:08:00,
2013-06-13 20:23:00,59.4,58.3,29.70,NW,315,0.0,-999.0,96,-99.99,,,0.00,Acu-Link.com,2013-06-14 00:23:00,
2013-06-13 20:38:00,59.0,57.9,29.70,NW,315,0.0,-999.0,96,-99.99,,,0.00,Acu-Link.com,2013-06-14 00:38:00,
2013-06-13 20:53:00,58.5,57.4,29.71,NW,315,0.0,-999.0,96,-99.99,,,0.00,Acu-Link.com,2013-06-14 00:53:00,
2013-06-13 21:08:00,58.3,57.5,29.71,NW,315,0.0,-999.0,97,-99.99,,,0.00,Acu-Link.com,2013-06-14 01:08:00,
2013-06-13 21:24:00,57.9,57.3,29.70,NW,315,0.0,-999.0,98,-99.99,,,0.00,Acu-Link.com,2013-06-14 01:24:00,
2013-06-13 21:39:00,57.7,57.1,29.71,NNW,337,0.0,-999.0,98,-99.99,,,0.00,Acu-Link.com,2013-06-14 01:39:00,
2013-06-13 21:54:00,57.4,56.8,29.70,NNW,337,0.0,-999.0,98,-99.99,,,0.00,Acu-Link.com,2013-06-14 01:54:00,
2013-06-13 22:09:00,57.0,56.4,29.70,NNW,337,0.0,-999.0,98,-99.99,,,0.00,Acu-Link.com,2013-06-14 02:09:00,
2013-06-13 22:24:00,56.7,56.1,29.70,NNW,337,0.0,-999.0,98,-99.99,,,0.00,Acu-Link.com,2013-06-14 02:24:00,
2013-06-13 22:40:00,56.7,56.1,29.70,NNW,337,0.0,-999.0,98,-99.99,,,0.00,Acu-Link.com,2013-06-14 02:40:00,
2013-06-13 22:55:00,56.3,55.7,29.70,NW,315,0.0,-999.0,98,-99.99,,,0.00,Acu-Link.com,2013-06-14 02:55:00,
2013-06-13 23:10:00,56.1,55.5,29.70,NW,315,0.0,-999.0,98,-99.99,,,0.00,Acu-Link.com,2013-06-14 03:10:00,
2013-06-13 23:25:00,55.9,55.3,29.69,ESE,112,0.0,-999.0,98,-99.99,,,0.00,Acu-Link.com,2013-06-14 03:25:00,
2013-06-13 23:41:00,55.8,55.2,29.70,NW,315,0.0,-999.0,98,-99.99,,,0.00,Acu-Link.com,2013-06-14 03:41:00,
2013-06-13 23:56:00,55.6,55.0,29.69,NW,315,0.0,-999.0,98,-99.99,,,0.00,Acu-Link.com,2013-06-14 03:56:00,